Hourly Data Report for October 04, 2017

All times are specified in Local Standard Time (LST). Add 1 hour to adjust for Daylight Saving Time where and when it is observed.

ASHCROFT
BRITISH COLUMBIA

50°42'30.005" N
121°16'53.001" W
327.00 m
1160515
71681
VAS

Download Data

Hourly Data (October 2017)
Hourly Data Report for October 4, 2017
Temp Definition
°C
Dew Point Temp Definition
°C
Rel Hum Definition
%
Wind Dir Definition
10's deg

Wind Spd Definition
km/h
Visibility Definition
km
Stn Press Definition
kPa
Hmdx Definition


Wind Chill Definition


Weather Definition


TIME
00:00 4.3 -5.2 50 19 4   98.91     LegendNANA
01:00 3.4 -4.5 56 21 2   98.95     LegendNANA
02:00 2.8 -4.5 59 20 3   98.97     LegendNANA
03:00 2.0 -5.8 56 17 4   98.98     LegendNANA
04:00 1.2 -4.5 66 18 3   98.98     LegendNANA
05:00 0.7 -5.6 63 13 5   98.97     LegendNANA
06:00 0.1 -5.1 68 16 3   98.97     LegendNANA
07:00 0.0 -4.7 71 17 1   98.99   0 LegendNANA
08:00 0.7 -4.6 68 15 3   98.97     LegendNANA
09:00 4.3 -4.4 53 13 2   98.91     LegendNANA
10:00 7.0 -4.8 43 14 2   98.82     LegendNANA
11:00 9.2 -5.9 34 28 2   98.68     LegendNANA
12:00 11.5 -6.0 29 28 3   98.56     LegendNANA
13:00 13.9 -6.5 24 23 3   98.44     LegendNANA
14:00 16.1 -6.5 21 26 4   98.33     LegendNANA
15:00 17.5 -6.0 20 26 3   98.25     LegendNANA
16:00 17.6 -6.0 19 29 3   98.21     LegendNANA
17:00 15.5 -4.1 26 19 1   98.21     LegendNANA
18:00 12.8 -5.1 28 15 3   98.25     LegendNANA
19:00 11.5 -5.0 31 13 2   98.29     LegendNANA
20:00 9.5 -4.0 38 14 3   98.33     LegendNANA
21:00 8.7 -3.4 43 16 2   98.35     LegendNANA
22:00 7.4 -3.0 48   0   98.38     LegendNANA
23:00 6.5 -3.3 49 14 3   98.40     LegendNANA

Notes on Data Quality.

Legend

  • E = Estimated
  • M = Missing
  • NA = Not Available
  • ‡ = Partner data that is not subject to review by the National Climate Archives
Date modified: